Wind_Speed
7 7 7 6 6 6 5 5 5 5 5 5 5 5 5 5 5 5 5 5 5 5 5 6 7 7 8 8 8 8 9 9 9 9 10 10 10 11 12 13 13 13 13
7 6 6 6 6 6 5 4 4 5 5 5 6 6 6 6 6 6 6 6 6 6 6 7 8 8 8 8 9 9 10 10 11 11 11 12 12 13 14 14 15 15 15
8 7 6 6 6 6 5 5 5 5 5 6 6 6 6 6 7 7 7 7 7 7 8 8 8 8 9 9 10 10 11 12 12 13 13 14 14 15 15 16 16 16 17
8 7 7 7 7 7 6 6 6 6 6 7 7 7 7 7 8 8 8 8 8 9 10 9 9 10 11 11 12 12 13 13 14 15 15 15 16 16 17 17 18 17 17
9 8 7 8 8 8 7 7 7 7 8 8 8 8 8 8 8 8 8 9 9 10 10 10 11 12 12 13 14 14 15 15 15 16 16 16 17 18 18 18 18 18 18
10 10 9 9 9 9 9 8 8 8 8 8 9 8 9 8 9 9 10 10 11 11 11 12 13 13 14 14 15 16 16 17 17 17 17 17 18 19 19 19 20 20 20
11 11 11 10 10 10 10 9 9 9 9 10 9 9 8 9 10 10 11 11 12 12 13 13 14 14 15 16 16 16 17 17 18 18 18 19 19 19 19 20 20 20 21
11 11 11 11 11 11 11 10 10 10 10 10 10 10 10 11 11 12 13 13 13 13 14 15 15 16 16 17 17 18 18 18 19 19 20 20 20 20 20 21 21 21 22
12 12 11 11 11 11 11 11 11 11 11 11 11 11 11 12 13 13 14 14 14 15 16 17 17 18 18 18 19 19 19 20 20 20 21 21 21 21 21 21 22 22 23
13 13 12 11 12 12 12 11 12 11 12 13 13 12 12 12 13 13 14 15 15 16 17 18 19 19 19 20 20 20 21 21 21 21 21 21 21 21 22 22 22 23 23
13 13 12 12 12 12 12 13 13 13 13 13 13 13 13 14 14 14 15 16 17 17 18 19 20 20 20 21 21 21 22 22 22 22 22 22 22 22 23 23 23 22 23
14 14 13 13 12 12 12 13 13 14 13 13 13 14 15 16 16 16 17 18 19 19 19 20 21 21 21 21 22 22 22 22 22 22 23 23 23 23 22 22 22 23 23
14 15 14 13 12 12 13 13 14 14 14 15 15 15 16 17 17 18 19 19 19 20 20 21 22 22 22 22 22 22 23 23 23 23 24 24 24 23 23 23 24 24 25
14 14 14 13 12 12 13 13 14 15 15 16 16 16 17 18 19 20 19 20 20 20 21 22 23 23 23 23 23 24 24 24 24 24 24 24 24 24 24 25 25 25 25
14 13 13 13 13 13 13 14 15 15 16 16 17 18 19 19 20 20 20 20 21 22 23 23 23 24 24 24 24 25 24 25 25 25 25 25 25 25 26 27 26 26 26
14 13 13 14 14 14 15 15 15 16 17 17 19 20 20 21 22 22 21 21 22 23 23 23 24 24 24 25 25 25 25 24 25 25 25 26 26 27 28 28 27 26 26
14 14 15 15 15 15 15 16 16 17 17 18 19 20 21 21 22 22 22 22 23 23 23 24 24 25 25 25 25 25 26 26 26 26 27 27 27 28 28 27 27 26 26
16 15 15 15 16 16 16 17 18 18 19 19 20 21 22 22 22 22 23 23 24 24 25 25 25 25 25 25 26 27 27 27 27 27 27 27 28 28 27 27 26 26 26
15 15 15 16 17 18 18 18 19 20 20 21 22 22 23 23 23 24 25 25 25 25 25 25 26 26 27 27 28 28 28 28 28 28 28 28 28 28 28 27 27 26 26
17 17 17 18 18 18 18 19 19 20 21 21 22 23 24 24 25 25 25 25 25 26 26 27 27 28 28 29 29 29 29 29 29 29 28 28 28 28 27 27 27 26 26
19 19 19 19 19 20 20 20 20 21 22 22 23 24 24 25 26 25 25 26 26 26 27 28 29 29 30 30 30 30 30 30 29 28 28 28 27 26 26 27 27 27 26
20 20 20 20 21 21 21 21 22 22 23 23 24 24 24 25 26 26 25 26 27 27 28 30 30 30 30 30 31 31 30 30 28 28 27 27 27 26 26 26 26 26 25
21 21 21 22 22 22 22 22 23 23 24 24 24 25 25 26 26 26 26 27 28 28 29 30 30 30 30 30 31 30 30 29 28 28 27 27 27 26 26 25 25 24 24
21 22 22 22 22 22 23 23 24 24 24 24 24 25 25 26 26 26 27 27 28 28 29 29 30 30 30 30 30 29 29 29 28 27 27 26 26 25 24 24 24 23 23
23 23 23 23 23 23 24 24 24 24 24 24 24 25 25 26 26 27 27 28 28 28 29 30 30 30 30 30 30 29 29 28 28 26 26 26 25 25 24 24 24 24 23
23 23 23 23 24 24 23 23 23 23 23 24 25 25 26 26 27 27 27 28 28 29 29 29 29 29 29 28 28 28 29 28 27 26 25 25 25 24 24 24 24 24 23
Wind_Direction
344 343 343 345 346 345 351 357 358 358 4 6 1 0 352 340 330 326 322 315 311 306 307 316 320 321 321 322 320 316 314 312 310 305 301 298 295 295 295 295 297 295 290
328 335 331 328 334 337 338 343 348 351 355 353 349 348 346 342 332 326 323 314 309 306 308 313 315 316 319 319 313 311 311 308 306 303 300 297 294 295 295 294 294 293 291
319 319 318 316 322 328 329 329 333 336 344 341 337 336 331 334 332 326 322 322 316 307 309 308 310 312 313 313 311 308 306 305 304 302 300 297 296 296 295 292 290 291 289
316 314 313 312 312 315 316 314 314 315 321 325 325 323 326 329 326 325 326 327 323 316 314 312 310 310 309 307 307 306 304 302 301 299 297 297 295 293 292 293 291 290 288
309 312 311 307 304 304 305 306 305 306 312 316 317 320 325 323 324 326 327 323 320 320 319 316 310 306 305 305 304 303 302 303 301 298 296 294 294 293 293 292 291 290 288
307 306 305 303 300 299 300 299 300 299 302 307 310 316 323 324 323 322 322 322 322 322 321 319 316 311 307 306 304 302 302 302 301 299 296 293 292 292 291 289 288 288 287
303 299 297 299 296 295 297 296 294 295 297 301 304 308 316 319 320 320 321 323 324 321 318 317 314 312 309 308 306 303 302 301 300 299 297 296 294 293 292 291 289 288 289
296 293 293 293 293 294 294 295 294 296 296 299 303 308 313 316 318 319 319 317 317 314 314 315 314 312 310 310 308 306 303 301 301 299 297 297 295 293 292 291 290 288 288
294 290 290 292 294 292 290 291 292 293 297 299 301 307 312 315 316 316 322 316 316 315 313 314 312 311 311 311 308 305 303 301 301 300 297 296 295 293 292 291 290 290 290
294 290 289 289 291 289 285 284 285 287 292 296 299 302 307 314 318 319 320 318 314 312 313 313 313 312 310 309 306 304 303 302 301 300 298 295 294 293 293 293 291 290 290
290 291 291 290 289 287 285 284 283 285 290 295 299 303 304 308 312 313 315 316 316 313 311 311 311 310 309 308 306 305 303 301 300 299 298 297 296 295 295 293 291 291 290
285 288 288 287 285 286 286 287 284 284 288 295 303 305 306 308 308 310 312 313 314 316 313 312 311 309 308 307 307 306 303 301 300 299 299 299 298 297 296 294 291 291 291
281 284 284 285 285 285 285 285 285 288 292 298 301 304 306 307 307 308 309 311 311 314 316 315 314 313 312 310 308 306 304 301 299 298 297 296 295 296 295 292 291 290 291
278 280 280 281 283 284 284 286 289 290 292 295 297 300 302 304 305 305 307 310 311 312 314 316 315 314 312 310 308 306 304 302 300 299 298 297 296 294 294 293 291 289 290
276 277 277 276 281 284 286 287 288 289 291 293 294 298 300 302 304 305 309 311 312 312 314 315 315 314 311 311 309 306 305 302 300 300 298 297 297 295 294 293 291 289 288
275 276 278 278 279 282 286 289 290 290 289 290 294 300 301 302 303 303 306 311 313 313 315 316 315 314 312 310 310 309 307 304 302 301 299 297 296 296 295 293 291 289 288
271 275 277 277 278 281 284 286 285 288 290 291 295 299 302 302 303 306 309 312 314 314 315 314 314 314 313 312 312 311 309 306 303 301 298 297 296 297 296 293 291 289 287
269 272 273 275 277 281 283 284 284 286 289 291 292 295 297 299 302 306 309 312 313 313 313 314 314 315 314 313 313 312 310 308 305 302 300 298 297 296 296 293 291 289 288
266 271 273 273 276 281 285 286 286 285 287 289 292 295 297 300 303 306 309 311 313 314 314 312 313 313 313 312 310 310 309 308 305 303 301 300 298 296 294 293 293 291 289
267 270 273 274 276 280 284 285 286 286 286 289 292 295 298 301 303 304 307 310 311 312 313 312 312 311 312 311 311 310 310 308 306 303 301 300 299 297 295 293 292 290 289
267 270 273 274 276 279 282 283 285 286 286 288 291 293 295 298 301 303 306 308 309 311 311 311 311 310 311 311 311 311 310 309 307 304 302 301 300 298 296 294 292 290 289
267 269 271 273 275 278 280 281 283 285 285 287 289 292 294 297 298 301 304 306 308 309 311 311 311 311 312 312 312 311 311 311 309 306 304 302 300 298 297 296 293 291 290
268 269 270 272 274 277 279 280 282 282 284 286 288 291 294 296 298 301 303 305 307 309 310 311 312 312 314 313 313 314 313 311 310 308 305 303 302 301 298 297 295 294 292
270 272 273 275 277 277 278 281 283 283 284 286 288 290 293 296 299 301 303 305 307 309 310 311 312 313 313 314 314 314 314 313 311 309 306 304 303 301 299 297 297 295 293
270 272 274 276 278 280 279 280 282 283 284 286 288 290 293 296 299 301 303 305 307 309 310 310 312 312 313 314 315 315 315 315 314 311 308 305 303 301 299 298 297 296 294
269 270 273 275 277 279 281 280 280 282 285 287 289 292 295 297 299 301 302 304 306 307 309 310 313 314 313 314 316 317 316 315 314 313 311 307 304 302 301 299 297 296 295
Height
5894 5892 5891 5889 5888 5886 5885 5883 5882 5881 5880 5878 5877 5876 5875 5874 5873 5872 5871 5870 5869 5868 5867 5866 5864 5863 5862 5861 5860 5858 5857 5856 5855 5854 5853 5851 5850 5849 5849 5847 5846 5845 5844
5893 5892 5890 5889 5888 5886 5885 5883 5882 5881 5880 5879 5877 5876 5875 5874 5873 5871 5870 5869 5868 5867 5865 5864 5863 5862 5861 5859 5858 5857 5856 5855 5853 5852 5851 5850 5849 5847 5846 5845 5843 5842 5841
5892 5891 5890 5888 5887 5886 5885 5884 5882 5881 5880 5878 5877 5876 5874 5873 5872 5870 5869 5868 5866 5865 5864 5862 5861 5860 5859 5858 5857 5855 5854 5852 5851 5850 5848 5847 5846 5844 5843 5841 5840 5839 5837
5891 5890 5889 5887 5886 5885 5884 5883 5882 5880 5879 5877 5876 5875 5873 5872 5871 5869 5868 5866 5865 5863 5862 5860 5859 5858 5857 5855 5854 5852 5851 5849 5848 5846 5845 5844 5842 5841 5839 5838 5836 5835 5833
5889 5888 5887 5886 5885 5884 5883 5882 5880 5879 5878 5876 5875 5873 5872 5871 5869 5868 5866 5865 5863 5862 5860 5858 5857 5855 5854 5852 5850 5849 5847 5845 5844 5842 5841 5839 5838 5836 5835 5834 5832 5830 5829
5888 5887 5885 5884 5883 5882 5881 5880 5879 5878 5876 5875 5874 5872 5871 5869 5868 5867 5865 5863 5861 5860 5858 5856 5854 5852 5851 5849 5847 5845 5843 5841 5840 5838 5836 5835 5833 5832 5830 5829 5827 5826 5824
5886 5885 5883 5882 5881 5880 5879 5878 5877 5876 5875 5874 5872 5871 5869 5868 5866 5865 5863 5861 5859 5857 5855 5854 5851 5849 5847 5845 5843 5841 5839 5837 5835 5833 5832 5830 5828 5827 5825 5823 5822 5820 5819
5883 5882 5881 5880 5879 5878 5877 5876 5875 5874 5872 5871 5870 5869 5868 5866 5864 5862 5860 5858 5857 5855 5853 5850 5848 5846 5843 5841 5839 5837 5835 5833 5831 5829 5827 5825 5823 5821 5819 5818 5816 5815 5814
5881 5880 5879 5877 5876 5875 5874 5873 5872 5871 5870 5869 5868 5867 5865 5863 5861 5859 5857 5855 5854 5851 5849 5847 5845 5842 5839 5837 5835 5832 5830 5828 5826 5824 5822 5819 5817 5816 5814 5812 5810 5809 5808
5878 5877 5876 5875 5874 5873 5872 5871 5870 5869 5868 5867 5865 5864 5862 5860 5858 5856 5854 5852 5850 5848 5846 5843 5840 5838 5835 5832 5830 5828 5825 5823 5821 5818 5816 5814 5812 5810 5808 5806 5804 5803 5801
5875 5874 5872 5871 5870 5869 5868 5867 5867 5866 5864 5863 5862 5861 5859 5858 5856 5853 5851 5849 5847 5844 5842 5839 5836 5834 5831 5828 5825 5823 5820 5818 5815 5812 5810 5808 5806 5804 5802 5800 5798 5797 5795
5871 5870 5869 5868 5867 5866 5865 5864 5863 5862 5861 5860 5859 5858 5856 5854 5852 5850 5848 5845 5843 5840 5837 5835 5832 5829 5826 5824 5821 5818 5815 5812 5810 5807 5804 5802 5800 5798 5796 5794 5792 5790 5789
5868 5867 5865 5864 5863 5862 5861 5860 5860 5859 5858 5857 5856 5855 5853 5851 5849 5847 5844 5841 5839 5836 5833 5830 5827 5824 5821 5818 5815 5812 5809 5807 5804 5801 5799 5796 5794 5792 5790 5788 5786 5784 5782
5864 5863 5862 5861 5860 5859 5858 5857 5856 5856 5855 5854 5852 5851 5849 5847 5845 5842 5839 5837 5834 5832 5828 5825 5822 5819 5816 5813 5810 5807 5804 5801 5798 5795 5793 5790 5788 5786 5783 5781 5779 5777 5775
5859 5859 5858 5857 5856 5855 5854 5854 5853 5852 5851 5850 5849 5847 5845 5843 5840 5838 5835 5832 5830 5827 5824 5820 5817 5814 5811 5807 5804 5801 5798 5795 5792 5789 5786 5784 5781 5779 5777 5774 5772 5770 5768
5855 5854 5853 5853 5852 5851 5851 5850 5849 5848 5847 5846 5845 5843 5841 5838 5836 5833 5831 5828 5825 5822 5819 5815 5812 5809 5805 5802 5798 5795 5792 5789 5786 5783 5780 5777 5775 5772 5770 5767 5765 5763 5761
5851 5851 5849 5849 5848 5848 5847 5846 5845 5844 5843 5842 5840 5838 5836 5834 5831 5829 5826 5823 5820 5817 5814 5810 5807 5803 5799 5796 5793 5789 5786 5782 5779 5776 5773 5770 5768 5765 5762 5760 5757 5756 5754
5847 5846 5846 5845 5844 5843 5843 5842 5841 5840 5838 5837 5835 5833 5831 5829 5826 5824 5821 5818 5815 5812 5808 5805 5801 5798 5794 5791 5787 5783 5779 5776 5772 5769 5766 5763 5760 5757 5755 5752 5750 5748 5746
5842 5842 5841 5841 5840 5839 5838 5837 5836 5835 5833 5832 5830 5828 5826 5824 5822 5819 5816 5813 5810 5806 5803 5799 5796 5792 5788 5784 5781 5777 5773 5769 5765 5762 5758 5755 5752 5749 5747 5744 5742 5740 5738
5837 5837 5837 5836 5835 5834 5833 5832 5831 5830 5828 5827 5825 5823 5821 5819 5816 5814 5811 5808 5804 5801 5797 5794 5790 5786 5782 5778 5774 5770 5766 5762 5758 5754 5751 5747 5744 5741 5739 5736 5734 5732 5730
5831 5831 5831 5831 5830 5829 5828 5827 5826 5824 5823 5821 5820 5818 5816 5813 5811 5808 5805 5802 5799 5795 5791 5788 5784 5780 5776 5772 5768 5763 5759 5754 5750 5746 5743 5740 5737 5733 5731 5728 5726 5724 5722
5826 5826 5825 5825 5824 5823 5822 5821 5820 5818 5817 5815 5814 5812 5810 5807 5805 5802 5799 5796 5792 5789 5785 5781 5777 5773 5769 5765 5760 5756 5751 5747 5743 5739 5735 5732 5729 5726 5723 5721 5718 5716 5714
5820 5819 5819 5819 5818 5817 5816 5815 5813 5812 5811 5809 5807 5806 5804 5801 5799 5796 5793 5790 5786 5782 5779 5775 5770 5766 5762 5757 5753 5749 5745 5740 5736 5732 5728 5725 5722 5719 5716 5713 5711 5708 5706
5813 5813 5813 5812 5811 5810 5809 5808 5806 5805 5804 5802 5801 5799 5797 5795 5792 5789 5786 5783 5779 5776 5772 5768 5764 5759 5755 5751 5747 5742 5738 5734 5729 5725 5721 5718 5714 5711 5708 5706 5704 5701 5699
5807 5806 5806 5805 5805 5804 5803 5801 5800 5799 5797 5796 5794 5792 5790 5788 5786 5783 5780 5777 5773 5769 5766 5762 5757 5753 5749 5744 5740 5736 5731 5727 5722 5718 5714 5711 5708 5705 5702 5699 5696 5694 5692
5800 5799 5799 5798 5798 5797 5795 5794 5793 5792 5791 5789 5787 5785 5783 5781 5779 5776 5773 5770 5767 5763 5759 5755 5751 5746 5742 5738 5734 5730 5725 5721 5716 5712 5708 5704 5701 5698 5695 5692 5690 5687 5685